CW1490 Weather Reports


time (UTC)temp
F
wind
direction
speed
knots
gust
knots
rain 1hr
in
rain 24hr
in
rain mn
in
humidity
%
barometer
mb
20260906095503 59 22 1.7 3.5 0.02 0.17 0.11 95 1015.2
20260906095003 59 30 1.7 3.5 0.03 0.17 0.11 95 1015.2
20260906094506 59 309 0.9 3.5 0.03 0.17 0.11 95 1015.2
20260906094007 59 342 0.9 3.5 0.03 0.17 0.11 95 1015.2
20260906093504 59 344 0.9 3.5 0.03 0.17 0.11 95 1015.2
20260906093006 58 338 1.7 3.5 0.04 0.17 0.11 95 1015.1
20260906092503 59 325 1.7 3.5 0.04 0.17 0.11 95 1015.0
20260906092003 59 298 0.9 3.5 0.05 0.17 0.11 95 1015.0
20260906091504 59 325 0.9 3.5 0.05 0.17 0.11 95 1014.9
20260906091005 59 9 0.9 4.3 0.05 0.17 0.11 95 1014.9
20260906090503 59 31 1.7 7.0 0.07 0.17 0.11 95 1014.9
20260906090009 59 338 2.6 7.8 0.07 0.16 0.10 95 1014.8
20260906085504 59 302 3.5 7.8 0.07 0.15 0.09 94 1014.8
20260906085003 59 332 2.6 6.1 0.06 0.14 0.08 95 1014.9
20260906084510 59 9 0.9 3.5 0.07 0.14 0.08 95 1014.8
20260906084003 59 9 0.9 5.2 0.07 0.14 0.08 95 1014.9
20260906083503 59 15 0.9 5.2 0.07 0.14 0.08 95 1014.9
20260906083007 59 32 1.7 3.5 0.06 0.13 0.07 95 1014.9
20260906082503 59 9 1.7 3.5 0.06 0.13 0.07 94 1014.9
20260906082004 59 15 1.7 3.5 0.05 0.12 0.06 94 1014.8
20260906081510 59 34 0.9 3.5 0.05 0.12 0.06 95 1014.8
20260906081003 59 19 0.9 4.3 0.05 0.12 0.06 95 1014.8
20260906080506 59 341 0.9 4.3 0.03 0.10 0.04 95 1014.8
20260906080007 59 13 1.7 3.5 0.02 0.09 0.03 95 1014.9
20260906075503 60 9 0.9 7.0 0.01 0.08 0.02 95 1014.9
20260906075004 59 19 2.6 7.0 0.01 0.08 0.02 94 1014.9
20260906074510 59 34 2.6 4.3 0.00 0.07 0.01 95 1014.8
20260906074003 59 26 1.7 4.3 0.00 0.07 0.01 94 1014.8
20260906073507 60 26 2.6 3.5 0.00 0.07 0.01 94 1014.7
20260906073015 60 9 0.0 2.6 0.00 0.07 0.01 94 1014.7
20260906072503 60 316 0.0 2.6 0.00 0.07 0.01 94 1014.7
20260906072004 59 9 0.9 2.6 0.00 0.07 0.01 94 1014.7
20260906071524 59 341 0.9 1.7 0.00 0.07 0.01 94 1014.6
20260906071006 59 250 0.9 1.7 0.00 0.07 0.01 94 1014.6
20260906070509 60 325 0.0 1.7 0.00 0.07 0.01 94 1014.6
20260906070015 59 221 0.0 1.7 0.00 0.07 0.01 94 1014.7
20260906065507 59 9 0.0 2.6 0.00 0.07 0.01 94 1014.7
20260906065006 60 76 0.9 2.6 0.00 0.07 0.01 94 1014.6
20260906064513 60 9 0.0 1.7 0.00 0.07 0.01 94 1014.6
20260906064009 60 265 0.0 1.7 0.00 0.07 0.01 94 1014.6
20260906063508 60 221 0.0 1.7 0.00 0.07 0.01 94 1014.6
20260906063012 60 221 0.0 2.6 0.00 0.07 0.01 94 1014.6
20260906062505 60 67 0.0 3.5 0.00 0.07 0.01 94 1014.6
20260906062010 60 193 1.7 3.5 0.01 0.07 0.01 94 1014.5
20260906061515 60 188 1.7 2.6 0.01 0.07 0.01 94 1014.6
20260906061010 60 205 1.7 2.6 0.01 0.07 0.01 94 1014.7
20260906060505 60 153 0.0 1.7 0.01 0.07 0.01 94 1014.7
20260906060020 60 51 0.0 1.7 0.01 0.07 0.01 94 1014.8
20260906055505 60 93 0.0 1.7 0.01 0.07 0.01 94 1014.8
20260906055009 60 309 0.0 1.7 0.01 0.07 0.01 94 1014.7
20260906054515 60 265 0.0 1.7 0.01 0.07 0.01 94 1014.7
20260906054008 60 265 0.0 2.6 0.01 0.07 0.01 94 1014.7
20260906053508 60 309 0.0 3.5 0.01 0.07 0.01 94 1014.7
20260906053017 60 22 0.9 3.5 0.01 0.07 0.01 94 1014.7
20260906052509 60 34 2.6 3.5 0.01 0.07 0.01 94 1014.7
20260906052011 60 34 1.7 6.1 0.00 0.06 0.00 93 1014.8
20260906051518 60 16 2.6 7.0 0.00 0.06 0.00 93 1014.9
20260906051011 60 36 3.5 7.0 0.00 0.06 0.00 93 1014.9
20260906050513 60 325 2.6 7.8 0.00 0.06 0.00 93 1014.8
20260906050018 60 42 2.6 7.8 0.00 0.06 0.00 93 1014.9
20260906045513 60 53 2.6 6.1 0.00 0.06 0.00 93 1014.7
20260906045006 60 51 1.7 6.1 0.00 0.06 0.00 93 1014.7
20260906044518 60 340 2.6 6.1 0.00 0.06 0.00 93 1014.8
20260906044012 60 44 2.6 9.6 0.00 0.06 0.00 93 1014.8
20260906043509 60 41 4.3 9.6 0.00 0.06 0.00 93 1014.9
20260906043030 61 63 4.3 9.6 0.00 0.06 0.00 93 1014.7
20260906042510 61 34 5.2 7.8 0.00 0.06 0.00 93 1014.7
20260906042010 61 44 2.6 4.3 0.00 0.06 0.00 93 1014.7
20260906041521 61 47 2.6 4.3 0.00 0.06 0.00 93 1014.8
20260906041010 61 56 1.7 7.0 0.00 0.06 0.00 93 1014.8
20260906040509 61 57 3.5 7.0 0.01 0.06 0.00 93 1014.7
20260906040025 61 9 1.7 6.1 0.03 0.06 0.00 93 1014.7
20260906035511 61 17 2.6 6.1 0.03 0.06 0.06 93 1014.7
20260906035010 61 22 1.7 2.6 0.03 0.06 0.06 93 1014.6
20260906034546 61 61 0.0 5.2 0.03 0.06 0.06 93 1014.5
20260906034012 61 38 1.7 6.1 0.03 0.06 0.06 93 1014.4
20260906033510 61 13 2.6 6.1 0.03 0.06 0.06 92 1014.4
20260906033023 61 43 1.7 7.8 0.04 0.06 0.06 92 1014.4
20260906032510 61 46 2.6 7.8 0.04 0.06 0.06 92 1014.4
20260906032010 61 70 1.7 7.0 0.04 0.06 0.06 92 1014.4
20260906031531 62 347 2.6 7.0 0.05 0.06 0.06 92 1014.4
20260906031012 62 330 2.6 7.0 0.06 0.06 0.06 92 1014.3
20260906030513 62 330 1.7 6.1 0.05 0.05 0.05 92 1014.2
20260906030027 62 25 2.6 6.1 0.03 0.03 0.03 92 1014.2
20260906025515 62 17 1.7 3.5 0.03 0.03 0.03 92 1014.2
20260906025012 62 9 0.9 3.5 0.03 0.03 0.03 92 1014.3
20260906024527 62 46 1.7 6.1 0.03 0.03 0.03 91 1014.2
20260906024017 62 334 1.7 7.0 0.03 0.03 0.03 91 1014.2
20260906023515 63 9 2.6 7.0 0.03 0.03 0.03 91 1014.2
20260906023030 63 15 2.6 7.0 0.02 0.02 0.02 90 1014.1
20260906022510 63 49 3.5 7.0 0.02 0.02 0.02 90 1014.1
20260906022010 64 21 3.5 6.1 0.02 0.02 0.02 90 1014.1
20260906021531 64 93 0.9 2.6 0.01 0.01 0.01 89 1014.0
20260906021010 64 309 0.9 5.2 0.00 0.00 0.00 88 1014.0
20260906020511 64 9 0.9 6.1 0.00 0.00 0.00 87 1013.9
20260906020028 65 38 3.5 8.7 0.00 0.00 0.00 85 1013.9
20260906015503 65 302 2.6 8.7 0.00 0.00 0.00 85 1013.9
20260906015004 65 26 3.5 7.8 0.00 0.00 0.00 86 1013.7
20260906014507 65 30 1.7 6.1 0.00 0.00 0.00 86 1013.6
20260906014006 65 32 3.5 7.8 0.00 0.00 0.00 86 1013.5
20260906013514 65 34 4.3 9.6 0.00 0.00 0.00 86 1013.5
20260906013014 65 66 5.2 9.6 0.00 0.00 0.00 87 1013.5
20260906012512 65 21 2.6 7.8 0.00 0.00 0.00 88 1013.5
20260906012008 65 65 3.5 5.2 0.00 0.00 0.00 87 1013.4
20260906011518 65 9 0.0 1.7 0.00 0.00 0.00 87 1013.3
20260906011012 65 221 0.0 1.7 0.00 0.00 0.00 87 1013.4
20260906010509 65 9 0.0 2.6 0.00 0.00 0.00 87 1013.4
20260906010027 65 30 0.0 2.6 0.00 0.00 0.00 86 1013.3
20260906005514 65 51 0.0 2.6 0.00 0.00 0.00 85 1013.3
20260906005012 66 298 0.9 3.5 0.00 0.00 0.00 85 1013.2
20260906004530 65 334 0.9 3.5 0.00 0.00 0.00 86 1013.1
20260906004005 65 9 1.7 3.5 0.00 0.00 0.00 86 1013.1
20260906003504 65 9 0.9 3.5 0.00 0.00 0.00 87 1013.0
20260906003008 65 28 1.7 3.5 0.00 0.00 0.00 87 1013.0
20260906002515 65 9 0.0 1.7 0.00 0.00 0.00 87 1012.9
20260906002009 65 291 0.0 1.7 0.00 0.00 0.00 87 1012.9
20260906001532 65 309 0.0 1.7 0.00 0.00 0.00 87 1012.9
20260906001007 65 51 0.0 2.6 0.00 0.00 0.00 86 1012.9
20260906000516 65 265 0.0 2.6 0.00 0.00 0.00 86 1012.9
20260906000025 65 93 0.0 2.6 0.00 0.00 0.00 86 1012.9
20260905235514 65 282 0.9 2.6 0.00 0.00 0.00 86 1012.8
20260905235010 65 221 0.0 3.5 0.00 0.00 0.00 85 1012.8
20260905234529 66 19 1.7 4.3 0.00 0.00 0.00 84 1012.7
20260905234013 66 341 1.7 4.3 0.00 0.00 0.00 84 1012.6
20260905233515 66 22 0.9 2.6 0.00 0.00 0.00 84 1012.5
20260905233032 66 93 0.0 4.3 0.00 0.00 0.00 83 1012.5
20260905232520 66 34 1.7 4.3 0.00 0.00 0.00 83 1012.5
20260905232006 66 46 1.7 3.5 0.00 0.00 0.00 82 1012.5
20260905231532 67 34 0.0 1.7 0.00 0.00 0.00 82 1012.4
20260905231005 67 93 0.0 1.7 0.00 0.00 0.00 81 1012.3
20260905230507 68 178 0.0 1.7 0.00 0.00 0.00 80 1012.2
20260905230038 68 265 0.0 1.7 0.00 0.00 0.00 77 1012.2
20260905225520 68 9 0.0 1.7 0.00 0.00 0.00 78 1012.2
20260905225014 68 325 0.0 1.7 0.00 0.00 0.00 78 1012.2
20260905224525 69 9 0.0 1.7 0.00 0.00 0.00 77 1012.2
20260905224015 69 221 0.0 1.7 0.00 0.00 0.00 79 1012.2
20260905223512 70 325 0.0 3.5 0.00 0.00 0.00 74 1012.2
20260905223042 70 9 0.9 7.0 0.00 0.00 0.00 73 1012.2
20260905222517 70 319 1.7 7.0 0.00 0.00 0.00 72 1012.1
20260905222016 70 325 0.9 3.5 0.00 0.00 0.00 73 1012.1
20260905221531 70 334 1.7 3.5 0.00 0.00 0.00 73 1012.0
20260905221017 70 330 0.9 5.2 0.00 0.00 0.00 73 1012.0
20260905220510 71 9 0.9 5.2 0.00 0.00 0.00 70 1012.0
20260905220018 71 59 1.7 5.2 0.00 0.00 0.00 70 1012.0
20260905215506 71 332 1.7 5.2 0.00 0.00 0.00 71 1012.0
20260905215009 70 26 1.7 7.8 0.00 0.00 0.00 71 1011.9
20260905214540 70 30 1.7 7.8 0.00 0.00 0.00 70 1011.8
20260905214010 70 26 1.7 9.6 0.00 0.00 0.00 71 1011.7
20260905213515 71 19 2.6 9.6 0.00 0.00 0.00 71 1011.7
20260905213026 71 31 2.6 7.8 0.00 0.00 0.00 70 1011.6
20260905212517 71 22 1.7 7.8 0.00 0.00 0.00 70 1011.5
20260905212013 71 9 1.7 7.8 0.00 0.00 0.00 70 1011.4
20260905211535 71 9 3.5 13.0 0.00 0.00 0.00 68 1011.3
20260905211014 72 57 7.0 13.0 0.00 0.00 0.00 67 1011.3
20260905210514 73 51 4.3 14.8 0.00 0.00 0.00 66 1011.3
20260905210044 74 44 4.3 15.6 0.00 0.00 0.00 65 1011.2
20260905205516 75 74 7.0 15.6 0.00 0.00 0.00 63 1011.1
20260905205017 75 67 7.0 13.9 0.00 0.00 0.00 63 1011.1
20260905204518 74 63 3.5 9.6 0.00 0.00 0.00 65 1011.0
20260905204011 74 44 2.6 9.6 0.00 0.00 0.00 65 1011.0
20260905203517 74 311 2.6 11.3 0.00 0.00 0.00 64 1010.9
20260905203026 74 34 4.3 14.8 0.00 0.00 0.00 62 1010.8
20260905202518 74 34 6.1 14.8 0.00 0.00 0.00 61 1010.7
20260905202013 74 25 8.7 13.9 0.00 0.00 0.00 61 1010.7
20260905201532 73 20 7.0 13.9 0.00 0.00 0.00 62 1010.7
20260905201014 74 31 7.0 17.4 0.00 0.00 0.00 62 1010.7
20260905200515 75 32 7.0 17.4 0.00 0.00 0.00 61 1010.7
20260905200046 75 48 7.0 13.0 0.00 0.00 0.00 60 1010.6
20260905195518 76 347 6.1 18.2 0.00 0.00 0.00 59 1010.6
20260905195017 76 53 11.3 18.2 0.00 0.00 0.00 60 1010.6
20260905194534 76 348 7.0 18.2 0.00 0.00 0.00 62 1010.7
20260905194015 76 323 9.6 17.4 0.00 0.00 0.00 61 1010.6
20260905193519 75 11 7.0 17.4 0.00 0.00 0.00 62 1010.6
20260905193020 77 48 9.6 17.4 0.00 0.00 0.00 61 1010.7
20260905192510 77 38 9.6 18.2 0.00 0.00 0.00 61 1010.7
20260905192018 77 36 9.6 18.2 0.00 0.00 0.00 60 1010.7
20260905191534 77 40 11.3 18.2 0.00 0.00 0.00 60 1010.7
20260905191015 76 54 7.8 14.8 0.00 0.00 0.00 62 1010.7
20260905190516 76 34 7.8 14.8 0.00 0.00 0.00 63 1010.8
20260905190029 75 56 6.1 14.8 0.00 0.00 0.00 65 1010.8
20260905185504 75 56 6.1 13.0 0.00 0.00 0.00 64 1010.8
20260905185004 75 79 6.1 17.4 0.00 0.00 0.00 63 1010.8
20260905184522 75 347 7.8 17.4 0.00 0.00 0.00 62 1010.8
20260905184007 75 340 4.3 15.6 0.00 0.00 0.00 64 1010.8
20260905183506 76 34 5.2 15.6 0.00 0.00 0.00 62 1010.9
20260905183026 77 20 8.7 20.0 0.00 0.00 0.00 61 1010.7
20260905182504 77 337 9.6 20.0 0.00 0.00 0.00 59 1010.7
20260905182003 76 24 11.3 16.5 0.00 0.00 0.00 59 1010.8
20260905181505 77 38 5.2 10.4 0.00 0.00 0.00 61 1010.8
20260905181011 75 16 3.5 13.9 0.00 0.00 0.00 65 1010.8
20260905180504 74 77 7.0 14.8 0.00 0.00 0.00 64 1010.9
20260905180037 73 340 7.0 15.6 0.00 0.00 0.00 64 1010.9
20260905175503 74 49 6.1 15.6 0.00 0.00 0.00 62 1010.8
20260905175003 75 346 9.6 15.6 0.00 0.00 0.00 61 1010.8
20260905174531 76 59 10.4 16.5 0.00 0.00 0.00 61 1010.8
20260905174007 77 13 10.4 16.5 0.00 0.00 0.00 56 1010.7
20260905173509 77 38 5.2 16.5 0.00 0.00 0.00 59 1010.8
20260905173017 77 66 8.7 16.5 0.00 0.00 0.00 57 1010.8
20260905172506 77 311 6.1 13.9 0.00 0.00 0.00 58 1010.7
20260905172008 76 47 6.1 16.5 0.00 0.00 0.00 60 1010.8
20260905171524 75 22 7.8 25.2 0.00 0.00 0.00 63 1010.8
20260905171003 76 51 11.3 26.1 0.00 0.00 0.00 59 1010.8
20260905170512 76 34 10.4 22.6 0.00 0.00 0.00 59 1010.8
20260905170028 75 28 10.4 17.4 0.00 0.00 0.00 59 1010.8
20260905165513 75 45 12.2 19.1 0.00 0.00 0.00 61 1010.9
20260905165005 76 348 10.4 19.1 0.00 0.00 0.00 59 1010.8
20260905164507 75 51 3.5 17.4 0.00 0.00 0.00 64 1010.8
20260905164003 73 25 7.8 17.4 0.00 0.00 0.00 64 1010.9
20260905163506 74 40 8.7 16.5 0.00 0.00 0.00 62 1010.9
20260905163014 75 33 7.8 16.5 0.00 0.00 0.00 63 1010.9
20260905162518 75 61 11.3 16.5 0.00 0.00 0.00 63 1010.9
20260905162007 76 83 9.6 15.6 0.00 0.00 0.00 63 1010.9
20260905161517 76 39 7.0 15.6 0.00 0.00 0.00 63 1010.9
20260905161013 75 18 8.7 19.1 0.00 0.00 0.00 64 1011.0
20260905160511 75 66 12.2 19.1 0.00 0.00 0.00 63 1011.0
20260905160027 74 41 8.7 18.2 0.00 0.00 0.00 66 1011.1
20260905155518 72 47 8.7 13.9 0.00 0.00 0.00 69 1011.3
20260905155012 71 30 5.2 14.8 0.00 0.00 0.00 69 1011.3
20260905154506 72 64 5.2 14.8 0.00 0.00 0.00 68 1011.3
20260905154005 72 36 4.3 11.3 0.00 0.00 0.00 68 1011.4
20260905153503 71 33 5.2 14.8 0.00 0.00 0.00 73 1011.5
20260905153014 70 49 5.2 14.8 0.00 0.00 0.00 69 1011.5
20260905152504 71 46 6.1 16.5 0.00 0.00 0.00 69 1011.5
20260905152016 71 31 7.8 16.5 0.00 0.00 0.00 70 1011.5
20260905151517 71 64 7.8 13.9 0.00 0.00 0.00 69 1011.5
20260905151008 71 67 7.8 13.9 0.00 0.00 0.00 71 1011.5
20260905150514 72 31 8.7 14.8 0.00 0.00 0.00 70 1011.5
20260905150026 72 63 8.7 15.6 0.00 0.00 0.00 72 1011.5
20260905145512 72 44 7.0 15.6 0.00 0.00 0.00 71 1011.5
20260905145010 73 21 7.8 16.5 0.00 0.00 0.00 73 1011.5
20260905144528 72 79 6.1 16.5 0.00 0.00 0.00 74 1011.5
20260905144012 72 47 11.3 15.6 0.00 0.00 0.00 73 1011.4
20260905143503 71 15 6.1 13.0 0.00 0.00 0.00 76 1011.4
20260905143009 70 38 7.8 13.0 0.00 0.00 0.00 77 1011.5
20260905142506 69 57 6.1 13.0 0.00 0.00 0.00 78 1011.5
20260905142016 69 55 4.3 14.8 0.00 0.00 0.00 79 1011.6
20260905141514 70 50 10.4 14.8 0.00 0.00 0.00 78 1011.6
20260905141009 69 57 4.3 8.7 0.00 0.00 0.00 82 1011.7
20260905140508 68 71 3.5 6.1 0.00 0.00 0.00 82 1011.8
20260905140018 67 79 2.6 6.1 0.00 0.00 0.00 84 1011.8
20260905135509 66 57 3.5 7.0 0.00 0.00 0.00 82 1011.7
20260905135011 66 165 1.7 7.0 0.00 0.00 0.00 84 1011.7
20260905134539 65 46 2.6 5.2 0.00 0.00 0.00 87 1011.7
20260905134014 65 41 1.7 3.5 0.00 0.00 0.00 91 1011.8
20260905133515 64 19 0.9 3.5 0.00 0.00 0.00 93 1011.8
20260905133035 63 56 2.6 3.5 0.00 0.00 0.00 94 1011.8
20260905132517 62 83 0.9 3.5 0.00 0.00 0.00 94 1011.9
20260905132016 62 19 2.6 3.5 0.00 0.00 0.00 95 1011.8
20260905131530 62 119 0.9 4.3 0.00 0.00 0.00 95 1011.8
20260905131020 61 41 1.7 4.3 0.00 0.00 0.00 95 1011.8
20260905130507 61 338 1.7 5.2 0.00 0.00 0.00 95 1011.9
20260905130014 60 28 2.6 5.2 0.00 0.00 0.00 95 1011.8
20260905125506 60 34 2.6 5.2 0.00 0.00 0.00 95 1011.8
20260905125008 60 32 2.6 4.3 0.00 0.00 0.00 95 1011.8
20260905124524 60 41 1.7 4.3 0.00 0.00 0.00 95 1011.8
20260905124013 60 61 1.7 3.5 0.00 0.00 0.00 95 1011.7
20260905123516 60 59 0.9 3.5 0.00 0.00 0.00 95 1011.7
20260905123053 60 51 1.7 3.5 0.00 0.00 0.00 95 1011.6
20260905122518 60 63 2.6 3.5 0.00 0.00 0.00 95 1011.6
20260905122014 59 26 1.7 3.5 0.00 0.00 0.00 95 1011.5
20260905121535 59 51 0.9 4.3 0.00 0.00 0.00 95 1011.5
20260905121014 59 51 1.7 4.3 0.00 0.00 0.00 95 1011.5
20260905120514 59 71 2.6 4.3 0.00 0.00 0.00 95 1011.5
20260905120012 59 51 2.6 7.0 0.00 0.00 0.00 95 1011.4
20260905115511 59 71 2.6 7.0 0.00 0.00 0.00 95 1011.4
20260905115008 59 49 2.6 4.3 0.00 0.00 0.00 95 1011.3
20260905114521 59 22 2.6 4.3 0.00 0.00 0.00 95 1011.3
20260905114011 59 41 1.7 6.1 0.00 0.00 0.00 95 1011.2
20260905113511 58 38 2.6 6.1 0.00 0.00 0.00 95 1011.3
20260905113030 58 16 2.6 4.3 0.00 0.00 0.00 95 1011.3
20260905112514 58 17 2.6 4.3 0.00 0.00 0.00 95 1011.2
20260905112014 58 51 0.9 3.5 0.00 0.00 0.00 95 1011.3
20260905111530 58 336 1.7 4.3 0.00 0.00 0.00 94 1011.2
20260905111015 58 47 2.6 4.3 0.00 0.00 0.00 95 1011.2
20260905110517 58 9 0.9 2.6 0.00 0.00 0.00 95 1011.1
20260905110034 58 330 0.9 2.6 0.00 0.00 0.00 94 1011.1
20260905105518 58 9 0.9 2.6 0.00 0.00 0.00 95 1011.1
20260905105013 58 319 0.9 3.5 0.00 0.00 0.00 95 1011.1
20260905104512 58 9 0.9 3.5 0.00 0.00 0.00 95 1010.9
20260905104008 58 265 0.9 3.5 0.00 0.00 0.00 95 1010.9
20260905103509 58 9 0.0 4.3 0.00 0.00 0.00 95 1010.8
20260905103023 58 26 1.7 4.3 0.00 0.00 0.00 95 1010.7
20260905102510 58 80 2.6 4.3 0.00 0.00 0.00 94 1010.6
20260905102011 58 34 1.7 3.5 0.00 0.00 0.00 94 1010.6
20260905101525 58 65 1.7 3.5 0.00 0.00 0.00 94 1010.7
20260905101013 58 9 0.0 1.7 0.00 0.00 0.00 94 1010.6
20260905100514 58 265 0.9 1.7 0.00 0.00 0.00 94 1010.6
20260905100044 58 9 0.0 3.5 0.00 0.00 0.00 94 1010.6